FREGAT DEB, 45835

Orbit data source: Space-Track

FREGAT DEB, 45835 is space debris in LEO originally from a launch on Mon, 18 Jul 2011 UTC launched from the Tyuratam Missile And Space Complex (TTMTR). Debris objects in space refer to the collection of defunct objects orbiting the Earth. Examples of debris include non-operational satellites, rocket bodies, and fragments generated from explosions, collisions, or faulty payload assembly.

Loading next visibility...
Identifier
45835, 2011-037BV
Orbit
LEO
Country
Flag of CISCIS
Related business
Manufacturer
Lavochkin
Mission
Spacecraft
Bus & Motor
Unknown
Mass
Unknown
Launch date (UTC)
2011-07-18 (15 years ago)
Launch vehicle
Unknown
Launch site
Tyuratam Missile And Space Complex (TTMTR)
Object type
Payload
Rocket body
Debris
Shape & HBR
Unknown shape, 0.1 m
Radar Cross Section
Medium (>0.1 m² and <1 m²)

Expand to show TLE details & history
Last TLE update: 23 hours ago

TLE from 23 hours ago
0 FREGAT DEB
1 45835U 11037BV  26254.54762868  .00003890  00000-0  71572-3 0  9997
2 45835  51.4362  83.2811 1614813 303.1593  42.4347 11.88716979263562
Epoch: 2026-09-11T13:08Z
TLE epoch observation values (Epoch: 2026-09-11T13:08:35.117Z)
Latitude
-0.00001°
Longitude
-104.43464°
Altitude
881.419 km
Speed
7.791 km/s
True Right ascension
05h 33m 07s
True Declination
0° 00' 00"
Sunlit
Object was in daylight at epoch
Visualization orbit readout
Latitude
Unknown
Longitude
Unknown
Altitude
Unknown
Speed
Unknown
Apparent Right ascension
Unknown
Apparent Declination
Unknown
Sunlit
N/A
Visualization observer readout
Local Sidereal Time
04:09:41
Azimuth
Unknown
Elevation
Unknown
Doppler factor
Unknown
Orbital elements
Apogee altitude
3,041.925 km
Perigee altitude
422.574 km
Semi-major axis
8,110.387 km
Eccentricity
0.16148
Inclination
51.4362°
RAAN
83.2811°
Arg. of periapsis
303.1593°
True anomaly
56.92915°
Mean anomaly
42.4347°
Eccentric anomaly
49.46662°
Mean motion
2.97153 °/min
Orbital period
121.15 mins
BSTAR
0.00071572
Loading maneuver chart data...
Computing Atmospheric mass density...

Documentation

Showing up to 5 results
|